User: anonymous   Login
Location: Unspecified
(45.4516°N, 0.0000°E)
Time: 04:00:48
(UTC+00:00)
Language:

Cosmos 1833 Rocket - Orbit

View from above orbital plane
View from above orbital plane
View from above satellite
View from above satellite

Ground track
Ground track

The orbit is defined by the following mean orbital elements,

1 17590U          26088.17359212 +.00000000 +00000-0 +36939-4 0 00003
2 17590  71.0015 235.4335 0002861  94.8825 265.2626 14.17165805    03
Epoch (UTC): 29 March 2026 04:09:58
Eccentricity: 0.0002861
inclination: 71.0015°
perigee height: 833 km
apogee height: 837 km
right ascension of ascending node: 235.4335°
argument of perigee: 94.8825°
revolutions per day: 14.17165805
mean anomaly at epoch: 265.2626°

The dashed part of the orbit path shows where the satellite is in the earth's shadow,  

DLR